Location: Herksen
(52.4316°N, 6.1319°E)
Time: 20:11:34
(UTC+00:00)

NOSS 0 Rocket - Pass Details

Date: 15 May 2026
Orbit: 936 x 952 km, 70.0° (Epoch: 8 June)

Event Time Altitude Azimuth Distance (km) Brightness Sun altitude
Rises 23:19:47 0° 324° (NW) 3,617 8.0 -18.5°
Reaches altitude 10° 23:22:25 10° 319° (NW) 2,666 7.0 -18.5°
Maximum altitude 23:28:14 45° 249° (WSW) 1,254 4.4 -18.5°
Enters shadow 23:30:48 30° 197° (SSW) 1,624 4.6 -18.5°
